Location: Bratislava
(0.0000°N, 17.1167°E)
Time: 03:53:33
(UTC+01:00)

H-10 deb - Pass Details

Date: 24 January 2021
Orbit: 370 x 32715 km, 6.9° (Epoch: 06 March)

Event Time Altitude Azimuth Distance (km) Brightness Sun altitude
Rises 19:51:09 0° 266° (W) 2,245 6.1 -25.3°
Reaches altitude 10° 19:52:51 10° 258° (WSW) 1,350 4.8 -25.7°
Enters shadow 19:54:00 25° 241° (WSW) 827 3.4 -25.9°
